Time,TemperatureF,DewpointF,PressureIn,WindDirection,WindDirectionDegrees,WindSpeedMPH,WindSpeedGustMPH,Humidity,HourlyPrecipIn,Conditions,Clouds,dailyrainin,SoftwareType,DateUTC
2013-03-01 00:05:00,47.8,36.0,30.08,North,355,0.0,0.0,64,0.00,,,0.00,weatherlink.com 1.10,2013-03-01 06:05:00,
2013-03-01 00:20:00,47.4,36.0,30.08,North,355,0.0,0.0,64,0.00,,,0.00,weatherlink.com 1.10,2013-03-01 06:20:00,
2013-03-01 00:35:00,47.0,36.0,30.07,North,355,0.0,0.0,65,0.00,,,0.00,weatherlink.com 1.10,2013-03-01 06:35:00,
2013-03-01 00:50:00,46.3,36.0,30.08,North,355,0.0,0.0,68,0.00,,,0.00,weatherlink.com 1.10,2013-03-01 06:50:00,
2013-03-01 01:05:00,45.7,35.0,30.09,North,355,0.0,2.0,67,0.00,,,0.00,weatherlink.com 1.10,2013-03-01 07:05:00,
2013-03-01 01:20:00,45.5,36.0,30.09,North,350,1.0,1.0,69,0.00,,,0.00,weatherlink.com 1.10,2013-03-01 07:20:00,
2013-03-01 01:35:00,45.5,36.0,30.08,North,350,0.0,2.0,69,0.00,,,0.00,weatherlink.com 1.10,2013-03-01 07:35:00,
2013-03-01 01:50:00,45.6,36.0,30.07,NNW,338,0.0,4.0,68,0.00,,,0.00,weatherlink.com 1.10,2013-03-01 07:50:00,
2013-03-01 02:05:00,45.6,35.0,30.07,NNW,335,0.0,2.0,67,0.00,,,0.00,weatherlink.com 1.10,2013-03-01 08:05:00,
2013-03-01 02:20:00,45.8,35.0,30.07,NNW,327,0.0,3.0,67,0.00,,,0.00,weatherlink.com 1.10,2013-03-01 08:20:00,
2013-03-01 02:35:00,45.6,36.0,30.05,NNW,331,0.0,1.0,68,0.00,,,0.00,weatherlink.com 1.10,2013-03-01 08:35:00,
2013-03-01 02:50:00,45.2,36.0,30.05,NNW,333,0.0,0.0,69,0.00,,,0.00,weatherlink.com 1.10,2013-03-01 08:50:00,
2013-03-01 03:05:00,44.9,37.0,30.06,NNW,346,0.0,3.0,74,0.00,,,0.00,weatherlink.com 1.10,2013-03-01 09:05:00,
2013-03-01 03:20:00,44.7,38.0,30.07,NNW,334,1.0,3.0,77,0.00,,,0.00,weatherlink.com 1.10,2013-03-01 09:20:00,
2013-03-01 03:35:00,44.7,38.0,30.06,NNW,346,2.0,2.0,78,0.00,,,0.00,weatherlink.com 1.10,2013-03-01 09:35:00,
2013-03-01 03:50:00,44.6,38.0,30.06,North,355,0.0,5.0,79,0.00,,,0.00,weatherlink.com 1.10,2013-03-01 09:50:00,
2013-03-01 04:05:00,44.3,38.0,30.06,North,355,0.0,3.0,78,0.00,,,0.00,weatherlink.com 1.10,2013-03-01 10:05:00,
2013-03-01 04:20:00,44.0,38.0,30.07,North,355,1.0,4.0,79,0.00,,,0.00,weatherlink.com 1.10,2013-03-01 10:20:00,
2013-03-01 04:35:00,43.7,38.0,30.07,North,355,0.0,0.0,79,0.00,,,0.00,weatherlink.com 1.10,2013-03-01 10:35:00,
2013-03-01 04:50:00,43.3,37.0,30.07,North,355,0.0,0.0,79,0.00,,,0.00,weatherlink.com 1.10,2013-03-01 10:50:00,
2013-03-01 05:05:00,42.8,37.0,30.08,North,355,0.0,3.0,80,0.00,,,0.00,weatherlink.com 1.10,2013-03-01 11:05:00,
2013-03-01 05:20:00,42.9,36.0,30.07,North,5,0.0,4.0,78,0.00,,,0.00,weatherlink.com 1.10,2013-03-01 11:20:00,
2013-03-01 05:35:00,43.0,36.0,30.08,North,5,0.0,0.0,77,0.00,,,0.00,weatherlink.com 1.10,2013-03-01 11:35:00,
2013-03-01 05:50:00,42.8,37.0,30.07,North,5,0.0,0.0,79,0.00,,,0.00,weatherlink.com 1.10,2013-03-01 11:50:00,
2013-03-01 06:05:00,42.7,37.0,30.08,North,5,0.0,1.0,79,0.00,,,0.00,weatherlink.com 1.10,2013-03-01 12:05:00,
2013-03-01 06:20:00,42.7,37.0,30.08,North,5,0.0,0.0,79,0.00,,,0.00,weatherlink.com 1.10,2013-03-01 12:20:00,
2013-03-01 06:35:00,42.7,36.0,30.08,North,5,1.0,3.0,78,0.00,,,0.00,weatherlink.com 1.10,2013-03-01 12:35:00,
2013-03-01 06:50:00,42.7,37.0,30.08,NE,36,0.0,2.0,79,0.00,,,0.00,weatherlink.com 1.10,2013-03-01 12:50:00,
2013-03-01 07:05:00,42.9,36.0,30.08,NNE,32,1.0,5.0,78,0.00,,,0.00,weatherlink.com 1.10,2013-03-01 13:05:00,
2013-03-01 07:20:00,43.2,36.0,30.09,NNE,32,0.0,4.0,77,0.00,,,0.00,weatherlink.com 1.10,2013-03-01 13:20:00,
2013-03-01 07:35:00,43.6,36.0,30.09,NNE,32,0.0,4.0,75,0.00,,,0.00,weatherlink.com 1.10,2013-03-01 13:35:00,
2013-03-01 07:50:00,44.3,36.0,30.09,NNE,32,0.0,0.0,73,0.00,,,0.00,weatherlink.com 1.10,2013-03-01 13:50:00,
2013-03-01 08:05:00,45.2,36.0,30.09,NNE,32,0.0,0.0,70,0.00,,,0.00,weatherlink.com 1.10,2013-03-01 14:05:00,
2013-03-01 08:20:00,45.7,36.0,30.10,NNE,32,3.0,5.0,70,0.00,,,0.00,weatherlink.com 1.10,2013-03-01 14:20:00,
2013-03-01 08:50:00,47.2,36.0,30.10,NNE,32,0.0,0.0,66,0.00,,,0.00,weatherlink.com 1.10,2013-03-01 14:50:00,
2013-03-01 09:05:00,48.7,36.0,30.10,NNE,32,0.0,0.0,63,0.00,,,0.00,weatherlink.com 1.10,2013-03-01 15:05:00,
2013-03-01 09:20:00,49.6,36.0,30.10,NNE,32,0.0,0.0,61,0.00,,,0.00,weatherlink.com 1.10,2013-03-01 15:20:00,
2013-03-01 09:35:00,49.1,36.0,30.10,SW,216,5.0,5.0,62,0.00,,,0.00,weatherlink.com 1.10,2013-03-01 15:35:00,
2013-03-01 09:50:00,49.0,36.0,30.10,SW,218,5.0,6.0,62,0.00,,,0.00,weatherlink.com 1.10,2013-03-01 15:50:00,
2013-03-01 10:05:00,49.3,37.0,30.09,SW,231,6.0,7.0,63,0.00,,,0.00,weatherlink.com 1.10,2013-03-01 16:05:00,
2013-03-01 10:20:00,49.5,38.0,30.09,SW,234,5.0,8.0,65,0.00,,,0.00,weatherlink.com 1.10,2013-03-01 16:20:00,
2013-03-01 10:35:00,50.0,39.0,30.09,SW,225,4.0,8.0,66,0.00,,,0.00,weatherlink.com 1.10,2013-03-01 16:35:00,
2013-03-01 10:50:00,50.8,38.0,30.09,WSW,237,2.0,8.0,63,0.00,,,0.00,weatherlink.com 1.10,2013-03-01 16:50:00,
2013-03-01 11:21:00,54.7,36.0,30.07,WNW,292,1.0,11.0,50,0.00,,,0.00,weatherlink.com 1.10,2013-03-01 17:21:00,
2013-03-01 11:36:00,56.2,35.0,30.07,North,355,9.0,13.0,46,0.00,,,0.00,weatherlink.com 1.10,2013-03-01 17:36:00,
2013-03-01 11:51:00,56.6,35.0,30.06,WNW,286,8.0,23.0,44,0.00,,,0.00,weatherlink.com 1.10,2013-03-01 17:51:00,
2013-03-01 12:06:00,57.3,34.0,30.05,NNW,333,6.0,19.0,42,0.00,,,0.00,weatherlink.com 1.10,2013-03-01 18:06:00,
2013-03-01 12:21:00,57.2,33.0,30.05,NNW,332,12.0,19.0,40,0.00,,,0.00,weatherlink.com 1.10,2013-03-01 18:21:00,
2013-03-01 12:36:00,57.7,32.0,30.04,West,265,8.0,18.0,38,0.00,,,0.00,weatherlink.com 1.10,2013-03-01 18:36:00,
2013-03-01 12:51:00,58.3,33.0,30.03,NNW,338,10.0,17.0,38,0.00,,,0.00,weatherlink.com 1.10,2013-03-01 18:51:00,
2013-03-01 13:06:00,57.9,32.0,30.02,West,270,2.0,21.0,37,0.00,,,0.00,weatherlink.com 1.10,2013-03-01 19:06:00,
2013-03-01 13:21:00,58.3,31.0,30.02,NW,310,15.0,24.0,35,0.00,,,0.00,weatherlink.com 1.10,2013-03-01 19:21:00,
2013-03-01 13:36:00,59.3,31.0,30.01,NNW,327,7.0,18.0,35,0.00,,,0.00,weatherlink.com 1.10,2013-03-01 19:36:00,
2013-03-01 13:51:00,59.6,32.0,30.00,West,272,1.0,16.0,35,0.00,,,0.00,weatherlink.com 1.10,2013-03-01 19:51:00,
2013-03-01 14:06:00,59.6,31.0,30.00,NNW,335,11.0,23.0,34,0.00,,,0.00,weatherlink.com 1.10,2013-03-01 20:06:00,
2013-03-01 14:21:00,60.0,31.0,30.00,NW,323,5.0,19.0,34,0.00,,,0.00,weatherlink.com 1.10,2013-03-01 20:21:00,
2013-03-01 14:36:00,60.5,32.0,30.00,NNW,343,19.0,20.0,34,0.00,,,0.00,weatherlink.com 1.10,2013-03-01 20:36:00,
2013-03-01 14:51:00,59.6,31.0,29.99,NW,319,11.0,20.0,34,0.00,,,0.00,weatherlink.com 1.10,2013-03-01 20:51:00,
2013-03-01 15:06:00,60.2,31.0,29.99,NNW,346,10.0,21.0,33,0.00,,,0.00,weatherlink.com 1.10,2013-03-01 21:06:00,
2013-03-01 15:21:00,59.9,31.0,29.98,NNW,336,10.0,18.0,34,0.00,,,0.00,weatherlink.com 1.10,2013-03-01 21:21:00,
2013-03-01 15:36:00,60.0,31.0,29.98,NNW,342,14.0,21.0,33,0.00,,,0.00,weatherlink.com 1.10,2013-03-01 21:36:00,
2013-03-01 15:51:00,59.6,30.0,29.98,North,355,9.0,20.0,33,0.00,,,0.00,weatherlink.com 1.10,2013-03-01 21:51:00,
2013-03-01 16:06:00,59.4,30.0,29.98,NW,317,9.0,21.0,33,0.00,,,0.00,weatherlink.com 1.10,2013-03-01 22:06:00,
2013-03-01 16:21:00,59.3,31.0,29.99,WNW,282,2.0,17.0,34,0.00,,,0.00,weatherlink.com 1.10,2013-03-01 22:21:00,
2013-03-01 16:36:00,58.9,30.0,29.99,NNW,344,18.0,22.0,33,0.00,,,0.00,weatherlink.com 1.10,2013-03-01 22:36:00,
2013-03-01 16:51:00,58.7,29.0,29.99,NNW,348,12.0,20.0,33,0.00,,,0.00,weatherlink.com 1.10,2013-03-01 22:51:00,
2013-03-01 17:06:00,58.3,31.0,30.00,NW,317,6.0,22.0,36,0.00,,,0.00,weatherlink.com 1.10,2013-03-01 23:06:00,
2013-03-01 17:21:00,57.8,31.0,30.00,NNW,344,8.0,17.0,36,0.00,,,0.00,weatherlink.com 1.10,2013-03-01 23:21:00,
2013-03-01 17:36:00,57.1,30.0,30.00,NNW,340,11.0,19.0,35,0.00,,,0.00,weatherlink.com 1.10,2013-03-01 23:36:00,
2013-03-01 17:51:00,56.1,30.0,30.01,NNW,346,8.0,12.0,37,0.00,,,0.00,weatherlink.com 1.10,2013-03-01 23:51:00,
2013-03-01 18:06:00,55.3,29.0,30.02,North,360,5.0,19.0,37,0.00,,,0.00,weatherlink.com 1.10,2013-03-02 00:06:00,
2013-03-01 18:21:00,54.6,29.0,30.03,North,355,13.0,15.0,37,0.00,,,0.00,weatherlink.com 1.10,2013-03-02 00:21:00,
2013-03-01 18:36:00,53.9,29.0,30.04,North,360,9.0,13.0,39,0.00,,,0.00,weatherlink.com 1.10,2013-03-02 00:36:00,
2013-03-01 18:51:00,53.2,29.0,30.05,North,355,5.0,17.0,39,0.00,,,0.00,weatherlink.com 1.10,2013-03-02 00:51:00,
2013-03-01 19:06:00,52.8,29.0,30.06,NNW,346,14.0,16.0,40,0.00,,,0.00,weatherlink.com 1.10,2013-03-02 01:06:00,
2013-03-01 19:21:00,52.2,30.0,30.07,North,9,7.0,15.0,42,0.00,,,0.00,weatherlink.com 1.10,2013-03-02 01:21:00,
2013-03-01 19:36:00,51.3,30.0,30.07,NNE,17,3.0,10.0,44,0.00,,,0.00,weatherlink.com 1.10,2013-03-02 01:36:00,
2013-03-01 19:51:00,50.7,30.0,30.08,NNW,333,7.0,15.0,46,0.00,,,0.00,weatherlink.com 1.10,2013-03-02 01:51:00,
2013-03-01 20:06:00,50.0,31.0,30.09,North,5,8.0,10.0,48,0.00,,,0.00,weatherlink.com 1.10,2013-03-02 02:06:00,
2013-03-01 20:21:00,49.2,31.0,30.10,North,355,11.0,11.0,50,0.00,,,0.00,weatherlink.com 1.10,2013-03-02 02:21:00,
2013-03-01 20:36:00,48.6,31.0,30.10,North,351,5.0,16.0,52,0.00,,,0.00,weatherlink.com 1.10,2013-03-02 02:36:00,
2013-03-01 20:51:00,48.1,31.0,30.11,NNE,13,9.0,14.0,53,0.00,,,0.00,weatherlink.com 1.10,2013-03-02 02:51:00,
2013-03-01 21:06:00,47.1,31.0,30.12,NNE,15,10.0,17.0,55,0.00,,,0.00,weatherlink.com 1.10,2013-03-02 03:06:00,
2013-03-01 21:21:00,46.4,32.0,30.12,North,5,4.0,11.0,58,0.00,,,0.00,weatherlink.com 1.10,2013-03-02 03:21:00,
2013-03-01 21:37:00,45.7,31.0,30.13,North,355,6.0,11.0,58,0.00,,,0.00,weatherlink.com 1.10,2013-03-02 03:37:00,
2013-03-01 21:52:00,45.1,32.0,30.13,North,360,1.0,7.0,60,0.00,,,0.00,weatherlink.com 1.10,2013-03-02 03:52:00,
2013-03-01 22:07:00,44.5,32.0,30.13,North,9,0.0,9.0,61,0.00,,,0.00,weatherlink.com 1.10,2013-03-02 04:07:00,
2013-03-01 22:22:00,44.0,32.0,30.13,North,10,3.0,6.0,63,0.00,,,0.00,weatherlink.com 1.10,2013-03-02 04:22:00,
2013-03-01 22:37:00,43.5,32.0,30.13,NNE,17,0.0,7.0,64,0.00,,,0.00,weatherlink.com 1.10,2013-03-02 04:37:00,
2013-03-01 22:52:00,42.9,32.0,30.12,North,5,0.0,7.0,66,0.00,,,0.00,weatherlink.com 1.10,2013-03-02 04:52:00,
2013-03-01 23:07:00,42.4,32.0,30.12,North,9,4.0,7.0,67,0.00,,,0.00,weatherlink.com 1.10,2013-03-02 05:07:00,
2013-03-01 23:22:00,41.9,32.0,30.13,North,5,4.0,8.0,68,0.00,,,0.00,weatherlink.com 1.10,2013-03-02 05:22:00,
2013-03-01 23:37:00,41.3,32.0,30.13,NNE,15,6.0,8.0,69,0.00,,,0.00,weatherlink.com 1.10,2013-03-02 05:37:00,
2013-03-01 23:52:00,41.0,32.0,30.13,North,9,3.0,7.0,70,0.00,,,0.00,weatherlink.com 1.10,2013-03-02 05:52:00,